When you browse on this site, cookies collect data to enhance your experience and personalize the content and advertising you see.
Visit our Privacy Policy to learn more. By continuing to use the site, you agree to this use of cookies and data.

Hourly Weather Labé

Today, 18 September, Friday

Time Temperature Precipitation Wind Pressure Humidity
00:00 +21°C° 0 mm 1 mps 671 mmHg 93%
01:00 +19°C° 0 mm 0 mps 671 mmHg 93%
02:00 +19°C° 0 mm 0 mps 671 mmHg 92%
03:00 +19°C° 0.2 mm 0 mps 671 mmHg 93%
04:00 +18°C° 0.2 mm 0 mps 671 mmHg 94%
05:00 +18°C° 0 mm 0 mps 671 mmHg 95%
06:00 +19°C° 0.5 mm 0 mps 672 mmHg 93%
07:00 +20°C° 0.5 mm 0 mps 673 mmHg 91%
08:00 +22°C° 0.5 mm 0 mps 673 mmHg 89%
09:00 +25°C° 1.1 mm 1 mps 674 mmHg 85%
10:00 +26°C° 1.1 mm 1 mps 674 mmHg 81%
11:00 +27°C° 1.1 mm 1 mps 674 mmHg 77%
12:00 +26°C° 1.6 mm 1 mps 673 mmHg 79%
13:00 +26°C° 1.6 mm 1 mps 672 mmHg 82%
14:00 +26°C° 1.6 mm 1 mps 671 mmHg 84%
15:00 +25°C° 2 mm 1 mps 671 mmHg 87%
16:00 +24°C° 2 mm 1 mps 671 mmHg 90%
17:00 +24°C° 2 mm 1 mps 672 mmHg 93%
18:00 +21°C° 1.9 mm 0 mps 672 mmHg 93%
19:00 +20°C° 1.9 mm 0 mps 673 mmHg 93%
20:00 +20°C° 1.9 mm 0 mps 673 mmHg 93%
21:00 +19°C° 1.2 mm 0 mps 673 mmHg 94%
22:00 +19°C° 1.2 mm 0 mps 673 mmHg 95%
23:00 +19°C° 1.2 mm 0 mps 673 mmHg 97%

Tomorrow, 19 September, Saturday

Time Temperature Precipitation Wind Pressure Humidity
00:00 +19°C° 1 mm 0 mps 673 mmHg 97%
01:00 +19°C° 1 mm 0 mps 672 mmHg 97%
02:00 +19°C° 1 mm 0 mps 672 mmHg 97%
03:00 +18°C° 0.3 mm 0 mps 672 mmHg 97%
04:00 +20°C° 0.3 mm 1 mps 672 mmHg 98%
05:00 +20°C° 0.3 mm 1 mps 672 mmHg 98%
06:00 +21°C° 0 mm 1 mps 673 mmHg 96%
07:00 +22°C° 0 mm 1 mps 673 mmHg 94%
08:00 +22°C° 0 mm 1 mps 674 mmHg 92%
09:00 +24°C° 0.1 mm 1 mps 674 mmHg 87%
10:00 +25°C° 0.1 mm 1 mps 674 mmHg 81%
11:00 +26°C° 0.1 mm 2 mps 674 mmHg 76%
12:00 +26°C° 0.6 mm 2 mps 674 mmHg 77%
13:00 +27°C° 0.6 mm 1 mps 673 mmHg 78%
14:00 +27°C° 0.6 mm 1 mps 673 mmHg 78%
15:00 +26°C° 0.3 mm 1 mps 673 mmHg 82%
16:00 +25°C° 0.3 mm 1 mps 673 mmHg 85%
17:00 +25°C° 0.3 mm 1 mps 673 mmHg 88%
18:00 +24°C° 0.5 mm 1 mps 673 mmHg 91%
19:00 +22°C° 0.5 mm 1 mps 673 mmHg 94%
20:00 +21°C° 0.5 mm 1 mps 674 mmHg 98%
21:00 +21°C° 0.4 mm 1 mps 674 mmHg 98%
22:00 +21°C° 0.4 mm 1 mps 674 mmHg 98%
23:00 +18°C° 0.4 mm 0 mps 674 mmHg 98%

Day after tomorrow, 20 September, Sunday

Time Temperature Precipitation Wind Pressure Humidity
00:00 +18°C° 0.5 mm 0 mps 674 mmHg 98%
01:00 +18°C° 0.5 mm 0 mps 673 mmHg 98%
02:00 +18°C° 0.5 mm 0 mps 673 mmHg 98%
03:00 +18°C° 1.3 mm 0 mps 673 mmHg 98%
04:00 +18°C° 1.3 mm 0 mps 673 mmHg 98%
05:00 +18°C° 1.3 mm 0 mps 673 mmHg 97%
06:00 +19°C° 0.3 mm 0 mps 673 mmHg 96%
07:00 +19°C° 0.3 mm 0 mps 674 mmHg 94%
08:00 +20°C° 0.3 mm 0 mps 674 mmHg 92%
09:00 +21°C° 0.6 mm 0 mps 675 mmHg 86%
10:00 +23°C° 0.6 mm 0 mps 675 mmHg 80%
11:00 +25°C° 0.6 mm 0 mps 675 mmHg 74%
12:00 +26°C° 1.2 mm 1 mps 674 mmHg 77%
13:00 +26°C° 1.2 mm 1 mps 674 mmHg 79%
14:00 +25°C° 1.2 mm 1 mps 673 mmHg 81%
15:00 +25°C° 0.8 mm 1 mps 673 mmHg 84%
16:00 +24°C° 0.8 mm 1 mps 672 mmHg 87%
17:00 +21°C° 0.8 mm 0 mps 672 mmHg 90%
18:00 +20°C° 0.3 mm 0 mps 673 mmHg 92%
19:00 +20°C° 0.3 mm 0 mps 673 mmHg 94%
20:00 +19°C° 0.3 mm 0 mps 674 mmHg 96%
21:00 +19°C° 0.7 mm 0 mps 674 mmHg 96%
22:00 +18°C° 0.7 mm 0 mps 674 mmHg 96%
23:00 +18°C° 0.7 mm 0 mps 674 mmHg 97%

21 September, Monday

Time Temperature Precipitation Wind Pressure Humidity
00:00 +18°C° 0.5 mm 0 mps 674 mmHg 96%
01:00 +18°C° 0.5 mm 0 mps 673 mmHg 96%
02:00 +18°C° 0.5 mm 0 mps 673 mmHg 96%
03:00 +18°C° 0.2 mm 0 mps 673 mmHg 96%
04:00 +18°C° 0.2 mm 0 mps 673 mmHg 96%
05:00 +18°C° 0.2 mm 0 mps 673 mmHg 96%
06:00 +19°C° 0.4 mm 0 mps 674 mmHg 94%
07:00 +19°C° 0.4 mm 0 mps 674 mmHg 92%
08:00 +22°C° 0.4 mm 1 mps 675 mmHg 90%
09:00 +23°C° 0.3 mm 1 mps 675 mmHg 86%
10:00 +24°C° 0.3 mm 2 mps 675 mmHg 81%
11:00 +25°C° 0.3 mm 2 mps 675 mmHg 77%
12:00 +26°C° 0.7 mm 2 mps 675 mmHg 76%
13:00 +26°C° 0.7 mm 2 mps 674 mmHg 76%
14:00 +27°C° 0.7 mm 1 mps 674 mmHg 75%
15:00 +25°C° 2.7 mm 1 mps 673 mmHg 81%
16:00 +24°C° 2.7 mm 1 mps 673 mmHg 87%
17:00 +23°C° 2.7 mm 1 mps 672 mmHg 93%
18:00 +22°C° 0.4 mm 1 mps 673 mmHg 92%
19:00 +22°C° 0.4 mm 1 mps 673 mmHg 91%
20:00 +19°C° 0.4 mm 0 mps 674 mmHg 90%
21:00 +19°C° 0 mm 0 mps 674 mmHg 91%
22:00 +18°C° 0 mm 0 mps 673 mmHg 91%
23:00 +18°C° 0 mm 0 mps 673 mmHg 92%

22 September, Tuesday

Time Temperature Precipitation Wind Pressure Humidity
00:00 +18°C° 0 mm 0 mps 673 mmHg 92%
01:00 +18°C° 0 mm 0 mps 673 mmHg 92%
02:00 +17°C° 0 mm 0 mps 672 mmHg 92%
03:00 +17°C° 0.1 mm 0 mps 672 mmHg 91%
04:00 +17°C° 0.1 mm 0 mps 672 mmHg 91%
05:00 +17°C° 0.1 mm 0 mps 672 mmHg 90%
06:00 +19°C° 0.1 mm 0 mps 673 mmHg 87%
07:00 +20°C° 0.1 mm 0 mps 674 mmHg 85%
08:00 +22°C° 0.1 mm 0 mps 675 mmHg 82%
09:00 +25°C° 0.6 mm 1 mps 675 mmHg 79%
10:00 +26°C° 0.6 mm 1 mps 675 mmHg 75%
11:00 +27°C° 0.6 mm 1 mps 675 mmHg 72%
12:00 +27°C° 0.7 mm 1 mps 674 mmHg 70%
13:00 +28°C° 0.7 mm 1 mps 674 mmHg 69%
14:00 +28°C° 0.7 mm 1 mps 673 mmHg 67%
15:00 +27°C° 0.9 mm 1 mps 673 mmHg 74%
16:00 +26°C° 0.9 mm 1 mps 673 mmHg 81%
17:00 +25°C° 0.9 mm 1 mps 672 mmHg 88%
18:00 +24°C° 0.1 mm 1 mps 673 mmHg 90%
19:00 +22°C° 0.1 mm 1 mps 673 mmHg 93%
20:00 +21°C° 0.1 mm 1 mps 673 mmHg 95%
21:00 +21°C° 0.3 mm 1 mps 673 mmHg 96%
22:00 +21°C° 0.3 mm 1 mps 673 mmHg 96%
23:00 +20°C° 0.3 mm 1 mps 673 mmHg 97%

23 September, Wednesday

Time Temperature Precipitation Wind Pressure Humidity
00:00 +20°C° 0 mm 1 mps 673 mmHg 97%
01:00 +20°C° 0 mm 1 mps 672 mmHg 98%
02:00 +18°C° 0 mm 0 mps 672 mmHg 98%
03:00 +18°C° 0.2 mm 0 mps 672 mmHg 98%
04:00 +20°C° 0.2 mm 1 mps 672 mmHg 98%
05:00 +20°C° 0.2 mm 1 mps 672 mmHg 98%
06:00 +21°C° 0.1 mm 1 mps 672 mmHg 96%
07:00 +21°C° 0.1 mm 2 mps 673 mmHg 94%
08:00 +23°C° 0.1 mm 2 mps 673 mmHg 92%
09:00 +24°C° 0 mm 2 mps 674 mmHg 87%
10:00 +25°C° 0 mm 2 mps 674 mmHg 82%
11:00 +26°C° 0 mm 2 mps 674 mmHg 77%
12:00 +26°C° 0.1 mm 2 mps 673 mmHg 75%
13:00 +27°C° 0.1 mm 2 mps 673 mmHg 74%
14:00 +27°C° 0.1 mm 2 mps 672 mmHg 72%
15:00 +26°C° 0.6 mm 2 mps 672 mmHg 77%
16:00 +26°C° 0.6 mm 2 mps 672 mmHg 83%
17:00 +25°C° 0.6 mm 2 mps 671 mmHg 88%
18:00 +24°C° 0.8 mm 1 mps 672 mmHg 90%
19:00 +23°C° 0.8 mm 1 mps 672 mmHg 92%
20:00 +22°C° 0.8 mm 1 mps 672 mmHg 93%
21:00 +22°C° 0.4 mm 1 mps 672 mmHg 94%
22:00 +19°C° 0.4 mm 0 mps 673 mmHg 94%
23:00 +19°C° 0.4 mm 0 mps 673 mmHg 94%
Show more